Location: Drocourt
(49.0571°N, 1.7669°E)
Time: 15:55:14
(UTC+00:00)

Vanguard 1 Rocket - Pass Details

Date: 19 April 2024
Orbit: 651 x 4220 km, 34.3° (Epoch: 19 May)

Event Time Altitude Azimuth Distance (km) Brightness Sun altitude
Rises 20:05:11 0° 238° (WSW) 3,371 10.7 -11.6°
Reaches altitude 10° 20:07:35 10° 226° (SW) 2,675 10.0 -11.9°
Maximum altitude 20:12:55 28° 168° (SSE) 2,231 9.0 -12.7°
Enters shadow 20:18:38 16° 125° (SE) 3,535 9.7 -13.4°
